| time (UTC) | temp C | wind direction | speed KPH | gust KPH | rain 1hr cm | rain 24hr cm | rain mn cm | humidity % | barometer mb |
| 20260507031535 | 13 | 228 | 0.0 | 0.0 | 0.00 | 0.00 | 0.00 | 77 | 1020.2 |
| 20260507030028 | 13 | 227 | 0.0 | 0.0 | 0.00 | 0.00 | 0.00 | 77 | 1020.2 |
| 20260507024522 | 14 | 194 | 0.0 | 0.0 | 0.00 | 0.00 | 0.00 | 76 | 1020.2 |
| 20260507023033 | 14 | 221 | 0.0 | 0.0 | 0.00 | 0.00 | 0.00 | 74 | 1020.2 |
| 20260507021526 | 15 | 217 | 0.0 | 0.0 | 0.00 | 0.00 | 0.00 | 72 | 1020.1 |
| 20260507020037 | 16 | 229 | 3.2 | 3.2 | 0.00 | 0.00 | 0.00 | 71 | 1020.1 |
| 20260507014526 | 16 | 170 | 3.2 | 3.2 | 0.00 | 0.00 | 0.00 | 71 | 1020.0 |
| 20260507013023 | 15 | 188 | 4.8 | 4.8 | 0.00 | 0.00 | 0.00 | 73 | 1020.0 |
| 20260507011537 | 15 | 224 | 4.8 | 4.8 | 0.00 | 0.00 | 0.00 | 73 | 1020.0 |
| 20260507010032 | 15 | 178 | 3.2 | 3.2 | 0.00 | 0.00 | 0.00 | 72 | 1020.1 |
| 20260507004522 | 15 | 221 | 6.4 | 6.4 | 0.00 | 0.00 | 0.00 | 72 | 1020.1 |
| 20260507003035 | 15 | 237 | 1.6 | 1.6 | 0.00 | 0.00 | 0.00 | 70 | 1020.1 |
| 20260507001524 | 15 | 246 | 3.2 | 3.2 | 0.00 | 0.00 | 0.00 | 69 | 1020.1 |
| 20260507000037 | 15 | 179 | 3.2 | 3.2 | 0.00 | 0.00 | 0.00 | 71 | 1020.1 |
| 20260506234530 | 16 | 155 | 4.8 | 4.8 | 0.00 | 0.00 | 0.00 | 70 | 1020.1 |
| 20260506233023 | 16 | 219 | 1.6 | 1.6 | 0.00 | 0.00 | 0.00 | 70 | 1020.0 |
| 20260506231520 | 15 | 200 | 0.0 | 0.0 | 0.00 | 0.00 | 0.00 | 71 | 1020.1 |
| 20260506230031 | 16 | 268 | 6.4 | 6.4 | 0.00 | 0.00 | 0.00 | 69 | 1020.1 |
| 20260506224525 | 16 | 157 | 6.4 | 6.4 | 0.00 | 0.00 | 0.00 | 70 | 1020.1 |
| 20260506223037 | 16 | 275 | 3.2 | 3.2 | 0.00 | 0.00 | 0.00 | 71 | 1020.1 |
| 20260506221527 | 16 | 175 | 3.2 | 3.2 | 0.00 | 0.00 | 0.00 | 70 | 1020.2 |
| 20260506220021 | 16 | 244 | 3.2 | 3.2 | 0.00 | 0.00 | 0.00 | 71 | 1020.2 |
| 20260506214534 | 16 | 176 | 3.2 | 3.2 | 0.00 | 0.00 | 0.00 | 71 | 1020.2 |
| 20260506213029 | 15 | 169 | 11.3 | 11.3 | 0.00 | 0.00 | 0.00 | 73 | 1020.1 |
| 20260506211520 | 15 | 215 | 4.8 | 4.8 | 0.00 | 0.00 | 0.00 | 75 | 1020.2 |
| 20260506210035 | 15 | 242 | 3.2 | 3.2 | 0.00 | 0.00 | 0.00 | 79 | 1020.2 |
| 20260506204545 | 14 | 184 | 4.8 | 4.8 | 0.00 | 0.00 | 0.00 | 78 | 1020.2 |
| 20260506203034 | 15 | 167 | 1.6 | 1.6 | 0.00 | 0.00 | 0.00 | 79 | 1020.2 |
| 20260506201528 | 13 | 227 | 1.6 | 1.6 | 0.00 | 0.00 | 0.00 | 81 | 1020.2 |
| 20260506200021 | 13 | 197 | 1.6 | 1.6 | 0.00 | 0.00 | 0.00 | 81 | 1020.2 |
| 20260506194536 | 13 | 172 | 4.8 | 4.8 | 0.00 | 0.00 | 0.00 | 83 | 1020.2 |
| 20260506193027 | 13 | 201 | 0.0 | 0.0 | 0.00 | 0.00 | 0.00 | 83 | 1019.9 |
| 20260506191520 | 13 | 175 | 0.0 | 0.0 | 0.00 | 0.00 | 0.00 | 83 | 1019.9 |
| 20260506190057 | 13 | 180 | 4.8 | 4.8 | 0.00 | 0.00 | 0.00 | 84 | 1019.8 |
| 20260506184526 | 13 | 217 | 0.0 | 0.0 | 0.00 | 0.00 | 0.00 | 85 | 1019.7 |
| 20260506183021 | 13 | 158 | 0.0 | 0.0 | 0.00 | 0.00 | 0.00 | 85 | 1019.7 |
| 20260506181530 | 13 | 239 | 4.8 | 4.8 | 0.00 | 0.00 | 0.00 | 84 | 1019.6 |
| 20260506180023 | 13 | 187 | 3.2 | 3.2 | 0.00 | 0.00 | 0.00 | 83 | 1019.7 |
| 20260506174536 | 13 | 236 | 4.8 | 4.8 | 0.00 | 0.00 | 0.00 | 85 | 1019.6 |
| 20260506173030 | 13 | 182 | 1.6 | 1.6 | 0.00 | 0.00 | 0.00 | 86 | 1019.2 |
| 20260506171525 | 13 | 45 | 0.0 | 0.0 | 0.00 | 0.00 | 0.00 | 87 | 1019.3 |
| 20260506170035 | 13 | 305 | 0.0 | 0.0 | 0.00 | 0.00 | 0.00 | 88 | 1019.5 |
| 20260506164532 | 12 | 86 | 0.0 | 0.0 | 0.00 | 0.00 | 0.00 | 89 | 1019.2 |
| 20260506163021 | 12 | 130 | 0.0 | 0.0 | 0.00 | 0.00 | 0.00 | 90 | 1019.6 |
| 20260506161531 | 12 | 153 | 1.6 | 1.6 | 0.00 | 0.00 | 0.00 | 90 | 1019.5 |
| 20260506160025 | 12 | 162 | 0.0 | 0.0 | 0.00 | 0.00 | 0.00 | 91 | 1019.3 |
| 20260506154556 | 12 | 153 | 0.0 | 0.0 | 0.00 | 0.00 | 0.00 | 92 | 1019.1 |
| 20260506153027 | 12 | 153 | 1.6 | 1.6 | 0.00 | 0.00 | 0.00 | 93 | 1018.9 |
| 20260506151538 | 11 | 109 | 0.0 | 0.0 | 0.00 | 0.00 | 0.00 | 93 | 1019.1 |
| 20260506150026 | 11 | 109 | 0.0 | 0.0 | 0.00 | 0.00 | 0.00 | 93 | 1019.2 |
| 20260506144540 | 11 | 109 | 0.0 | 0.0 | 0.00 | 0.00 | 0.00 | 93 | 1019.1 |
| 20260506143050 | 11 | 109 | 0.0 | 0.0 | 0.00 | 0.00 | 0.00 | 94 | 1018.8 |
| 20260506141523 | 11 | 109 | 0.0 | 0.0 | 0.00 | 0.00 | 0.00 | 95 | 1018.8 |
| 20260506140036 | 11 | 109 | 0.0 | 0.0 | 0.00 | 0.00 | 0.00 | 94 | 1018.7 |
| 20260506134526 | 11 | 109 | 0.0 | 0.0 | 0.00 | 0.00 | 0.00 | 94 | 1018.6 |
| 20260506133039 | 10 | 109 | 0.0 | 0.0 | 0.00 | 0.00 | 0.00 | 94 | 1018.7 |
| 20260506131529 | 10 | 109 | 0.0 | 0.0 | 0.00 | 0.00 | 0.00 | 94 | 1018.6 |
| 20260506130023 | 10 | 109 | 0.0 | 0.0 | 0.00 | 0.00 | 0.00 | 94 | 1018.6 |
| 20260506124534 | 10 | 109 | 0.0 | 0.0 | 0.00 | 0.00 | 0.00 | 94 | 1018.2 |
| 20260506123028 | 10 | 109 | 0.0 | 0.0 | 0.00 | 0.00 | 0.00 | 94 | 1018.2 |
| 20260506121517 | 10 | 109 | 0.0 | 0.0 | 0.00 | 0.00 | 0.00 | 94 | 1018.3 |
| 20260506120032 | 10 | 109 | 0.0 | 0.0 | 0.00 | 0.00 | 0.00 | 94 | 1018.4 |
| 20260506114527 | 10 | 109 | 0.0 | 0.0 | 0.00 | 0.00 | 0.00 | 94 | 1018.1 |
| 20260506113020 | 10 | 109 | 0.0 | 0.0 | 0.00 | 0.00 | 0.00 | 94 | 1018.1 |
| 20260506111538 | 10 | 109 | 0.0 | 0.0 | 0.00 | 0.00 | 0.00 | 94 | 1017.9 |
| 20260506110027 | 9 | 109 | 0.0 | 0.0 | 0.00 | 0.00 | 0.00 | 94 | 1017.6 |
| 20260506104542 | 9 | 109 | 0.0 | 0.0 | 0.00 | 0.00 | 0.00 | 94 | 1017.6 |
| 20260506103054 | 8 | 109 | 0.0 | 0.0 | 0.00 | 0.00 | 0.00 | 94 | 1017.4 |
| 20260506101543 | 8 | 109 | 0.0 | 0.0 | 0.00 | 0.00 | 0.00 | 94 | 1017.3 |
| 20260506100020 | 8 | 109 | 0.0 | 0.0 | 0.00 | 0.00 | 0.00 | 94 | 1017.2 |
| 20260506094533 | 7 | 109 | 0.0 | 0.0 | 0.00 | 0.00 | 0.00 | 93 | 1017.1 |
| 20260506093027 | 7 | 109 | 0.0 | 0.0 | 0.00 | 0.00 | 0.00 | 92 | 1017.1 |
| 20260506091557 | 8 | 109 | 0.0 | 0.0 | 0.00 | 0.00 | 0.00 | 92 | 1017.1 |
| 20260506090027 | 8 | 109 | 0.0 | 0.0 | 0.00 | 0.00 | 0.00 | 92 | 1017.1 |
| 20260506084522 | 8 | 109 | 0.0 | 0.0 | 0.00 | 0.00 | 0.00 | 91 | 1017.0 |
| 20260506083031 | 8 | 109 | 0.0 | 0.0 | 0.00 | 0.00 | 0.00 | 91 | 1016.8 |
| 20260506081545 | 8 | 109 | 0.0 | 0.0 | 0.00 | 0.00 | 0.00 | 91 | 1016.6 |
| 20260506073022 | 10 | 109 | 0.0 | 0.0 | 0.00 | 0.00 | 0.00 | 91 | 1016.3 |
| 20260506071531 | 10 | 109 | 0.0 | 0.0 | 0.00 | 0.00 | 0.00 | 91 | 1016.4 |
| 20260506061521 | 10 | 109 | 0.0 | 0.0 | 0.00 | 0.00 | 0.00 | 90 | 1016.2 |
| 20260506044532 | 12 | 109 | 0.0 | 0.0 | 0.00 | 0.00 | 0.00 | 86 | 1015.5 |
| 20260506043027 | 13 | 109 | 0.0 | 0.0 | 0.00 | 0.00 | 0.00 | 85 | 1015.4 |
| 20260506041517 | 13 | 109 | 0.0 | 0.0 | 0.00 | 0.00 | 0.00 | 83 | 1015.0 |
| 20260506040033 | 14 | 109 | 0.0 | 0.0 | 0.00 | 0.00 | 0.00 | 82 | 1014.9 |
| 20260506034523 | 15 | 109 | 0.0 | 0.0 | 0.00 | 0.00 | 0.00 | 79 | 1015.0 |
| 20260506033036 | 16 | 109 | 0.0 | 0.0 | 0.00 | 0.00 | 0.00 | 77 | 1014.8 |